Stations météo

réclame
Mon MeteoGroup
Nikkaluokta, Suède (2036): Température de l'air & dewpoint: 28.07.2020 13:00:00 - 03.08.2020 13:00:00 (CEST)Nikkaluokta, Suède (2036): Vitesse du vent & gusts: 28.07.2020 13:00:00 - 03.08.2020 13:00:00 (CEST)Nikkaluokta, Suède (2036): Direction du vent: 28.07.2020 13:00:00 - 03.08.2020 13:00:00 (CEST)Nikkaluokta, Suède (2036): reduced air pressure: 28.07.2020 13:00:00 - 03.08.2020 13:00:00 (CEST)Nikkaluokta, Suède (2036): visibility: 28.07.2020 13:00:00 - 03.08.2020 13:00:00 (CEST)Nikkaluokta, Suède (2036): Quantités de précipitations: 28.07.2020 13:00:00 - 03.08.2020 13:00:00 (CEST)
Date & Time tt [°C] td [°C] ff [km/h] ff [knt] fx [km/h] fx [knt] dd ppp [hPa] vv [km] rr [mm]
03.08.2020 13:00:00 17,3 9,7 7 4 11 6 ENE 1001,5 50 0,0
03.08.2020 12:00:00 16,9 10,3 7 4 11 6 ENE 1001,9 34 0,0
03.08.2020 11:00:00 14,9 8,8 4 2 8 4 NE 1002,7 37 0,0
03.08.2020 10:00:00 14,0 9,8 6 3 13 7 ENE 1003,5 41 0,0
03.08.2020 09:00:00 13,1 9,5 8 5 16 8 E 1004,2 48 0,0
03.08.2020 08:00:00 12,4 9,4 8 5 15 8 E 1004,6 44 0,0
03.08.2020 07:00:00 12,1 9,5 8 4 18 10 E 1005,1 48 0,0
03.08.2020 06:00:00 11,5 9,1 9 5 23 12 E 1005,5 44 0,0
03.08.2020 05:00:00 11,4 8,6 9 5 16 9 ENE 1005,9 50 0,0
03.08.2020 04:00:00 11,1 8,7 5 3 24 13 E 1006,4 50 0,0
03.08.2020 03:00:00 11,8 7,3 8 4 21 11 SSW 1006,7 50 0,0
03.08.2020 02:00:00 11,0 7,9 3 2 20 11 N 1007,3 50 0,0
03.08.2020 01:00:00 12,0 8,3 6 3 16 8 ENE 1007,4 50 0,0
03.08.2020 00:00:00 12,4 8,7 3 2 20 11 S 1007,6 49 0,0
02.08.2020 23:00:00 12,9 8,4 5 3 - - E 1007,6 50 0,0
02.08.2020 22:00:00 12,9 8,8 5 3 14 8 ESE 1007,8 50 0,0
02.08.2020 21:00:00 13,5 10,7 6 3 17 9 E 1007,8 42 0,0
02.08.2020 20:00:00 13,9 9,9 11 6 21 11 E 1007,7 50 0,0
02.08.2020 19:00:00 14,6 9,6 11 6 21 12 E 1007,7 50 0,0
02.08.2020 18:00:00 14,7 9,7 11 6 22 12 E 1008,0 50 0,0
02.08.2020 17:00:00 14,8 9,9 14 7 23 13 E 1008,5 50 0,0
02.08.2020 16:00:00 15,1 9,7 16 9 25 13 ENE 1008,7 50 0,0
02.08.2020 15:00:00 15,3 10,1 13 7 26 14 E 1009,1 49 0,0
02.08.2020 14:00:00 15,2 9,8 15 8 25 13 E 1009,4 47 0,0
02.08.2020 13:00:00 14,5 10,1 13 7 22 12 E 1010,0 37 0,0
02.08.2020 12:00:00 14,1 10,1 12 6 21 12 E 1010,3 41 0,0
02.08.2020 11:00:00 13,5 9,6 13 7 24 13 E 1010,9 41 0,0
02.08.2020 10:00:00 12,8 9,6 14 7 23 13 E 1011,5 41 0,0
02.08.2020 09:00:00 12,0 9,6 13 7 25 13 E 1012,0 50 0,0
02.08.2020 08:00:00 12,3 9,9 11 6 19 10 E 1012,1 50 0,0
02.08.2020 07:00:00 11,8 10,2 6 4 14 7 E 1012,4 49 0,0
02.08.2020 06:00:00 10,9 10,4 0 0 4 2 N 1013,0 37 0,0
02.08.2020 05:00:00 7,3 7,0 4 2 5 3 SSW 1014,1 16 0,0
02.08.2020 04:00:00 7,2 6,8 3 1 11 6 SSW 1014,4 13 0,0
02.08.2020 03:00:00 7,9 7,5 5 3 8 5 SW 1014,6 17 0,0
02.08.2020 02:00:00 9,4 8,9 5 3 7 4 SW 1014,5 37 0,0
02.08.2020 01:00:00 9,6 9,0 3 2 - - WSW 1014,7 28 0,0
02.08.2020 00:00:00 10,5 9,9 0 0 6 4 N 1014,5 15 0,0
01.08.2020 23:00:00 11,3 10,2 6 3 8 4 SW 1014,5 32 0,0
01.08.2020 22:00:00 13,1 11,0 4 2 15 8 SSW 1014,1 50 0,0
01.08.2020 21:00:00 15,0 11,2 10 5 21 12 E 1013,5 50 0,0
01.08.2020 20:00:00 15,7 11,3 13 7 25 13 E 1013,4 50 0,0
01.08.2020 19:00:00 16,7 8,9 9 5 21 12 ESE 1013,0 50 0,0
01.08.2020 18:00:00 18,5 9,8 10 5 20 11 E 1012,6 50 0,0
01.08.2020 17:00:00 19,5 9,0 9 5 20 11 ESE 1012,4 42 0,0
01.08.2020 16:00:00 20,0 10,1 9 5 16 8 E 1012,5 48 0,0
01.08.2020 15:00:00 19,3 11,3 10 6 16 9 E 1013,0 45 0,0
01.08.2020 14:00:00 18,7 11,8 10 5 - - E 1013,5 32 0,0
01.08.2020 13:00:00 17,0 11,1 11 6 16 9 E 1014,3 43 0,0
01.08.2020 12:00:00 17,2 10,6 9 5 13 7 E 1014,7 41 0,0
01.08.2020 11:00:00 16,1 10,4 7 4 12 7 E 1015,4 44 0,0
01.08.2020 10:00:00 15,5 11,3 4 2 10 5 E 1015,7 45 0,0
01.08.2020 09:00:00 14,8 10,4 8 4 13 7 E 1016,1 50 0,0
01.08.2020 08:00:00 14,1 10,1 5 3 11 6 E 1016,6 49 0,0
01.08.2020 07:00:00 12,4 10,1 2 1 4 2 ESE 1017,1 47 0,0
01.08.2020 06:00:00 10,3 9,5 3 2 9 5 N 1017,8 36 0,0
01.08.2020 05:00:00 10,4 8,9 6 3 11 6 WNW 1017,9 50 0,0
01.08.2020 04:00:00 9,7 8,5 6 3 12 6 W 1018,2 50 0,0
01.08.2020 03:00:00 9,1 8,2 5 3 - - WSW 1018,4 37 0,0
01.08.2020 02:00:00 10,0 8,4 10 5 14 8 WSW 1018,5 50 0,0
01.08.2020 01:00:00 11,0 9,1 8 4 14 8 WSW 1018,4 50 0,0
01.08.2020 00:00:00 11,6 9,8 8 4 13 7 WSW 1018,1 48 0,0
31.07.2020 23:00:00 12,2 10,7 3 2 7 4 E 1017,6 42 0,0
31.07.2020 22:00:00 14,4 11,4 4 2 8 5 NNE 1017,0 50 0,0
31.07.2020 21:00:00 16,6 10,9 6 3 14 7 SSE 1016,1 50 0,0
31.07.2020 20:00:00 18,1 10,9 7 4 14 8 ESE 1015,6 50 0,0
31.07.2020 19:00:00 18,3 11,6 9 5 17 9 E 1015,4 49 0,0
31.07.2020 18:00:00 17,6 10,0 11 6 21 12 E 1015,3 48 0,0
31.07.2020 17:00:00 18,7 10,0 9 5 20 11 ENE 1015,0 50 0,0
31.07.2020 16:00:00 21,8 8,3 9 5 22 12 E 1014,0 44 0,0
31.07.2020 15:00:00 20,2 7,9 5 3 20 11 E 1014,4 50 0,0
31.07.2020 14:00:00 19,5 10,5 3 2 11 6 ESE 1014,4 43 0,0
31.07.2020 13:00:00 21,2 9,4 7 4 11 6 E 1013,9 37 0,0
31.07.2020 12:00:00 18,4 9,2 5 3 9 5 NE 1014,6 45 0,0
31.07.2020 11:00:00 18,0 10,0 3 2 8 4 E 1014,8 43 0,0
31.07.2020 10:00:00 15,2 8,4 6 3 8 5 E 1015,4 40 0,0
31.07.2020 09:00:00 14,7 9,1 3 2 5 3 NE 1015,5 50 0,0
31.07.2020 08:00:00 12,7 8,4 3 1 5 3 NNE 1016,0 42 0,0
31.07.2020 07:00:00 10,5 8,3 2 1 4 2 NE 1016,5 50 0,0
31.07.2020 06:00:00 8,5 7,7 0 0 4 2 N 1016,9 46 0,0
31.07.2020 05:00:00 5,6 5,3 4 2 5 3 W 1017,3 42 0,0
31.07.2020 04:00:00 4,5 4,2 4 2 6 3 WSW 1017,3 25 0,0
31.07.2020 03:00:00 5,1 4,4 4 2 10 5 W 1016,8 10 0,0
31.07.2020 02:00:00 7,3 6,7 6 3 11 6 W 1015,9 38 0,0
31.07.2020 01:00:00 7,3 6,9 7 4 10 5 W 1015,6 37 0,0
31.07.2020 00:00:00 8,0 7,1 4 2 9 5 W 1015,0 38 0,0
30.07.2020 23:00:00 9,9 8,3 6 3 13 7 WSW 1013,9 50 0,0
30.07.2020 22:00:00 10,5 8,9 4 2 8 5 WSW 1013,1 41 0,0
30.07.2020 21:00:00 14,5 10,5 4 2 11 6 SW 1011,7 39 0,0
30.07.2020 20:00:00 16,4 9,1 10 6 16 9 NE 1010,8 48 0,0
30.07.2020 19:00:00 17,7 9,6 8 4 16 9 E 1010,1 50 0,0
30.07.2020 18:00:00 18,3 9,6 11 6 19 11 E 1009,7 40 0,0
30.07.2020 17:00:00 18,3 9,9 12 6 21 11 E 1009,3 40 0,0
30.07.2020 16:00:00 18,3 10,9 10 5 23 12 E 1008,7 49 0,0
30.07.2020 15:00:00 17,7 11,0 11 6 26 14 E 1008,7 42 0,0
30.07.2020 14:00:00 17,6 11,6 8 4 24 13 E 1008,4 48 0,0
30.07.2020 13:00:00 18,6 11,7 7 4 15 8 E 1008,1 34 0,0
30.07.2020 12:00:00 16,9 10,7 5 3 13 7 SE 1008,4 50 0,0
30.07.2020 11:00:00 16,4 11,6 3 1 5 3 NNW 1008,5 43 0,0
30.07.2020 10:00:00 15,5 10,7 2 1 11 6 NNE 1008,6 50 0,0
30.07.2020 09:00:00 16,3 10,8 5 3 9 5 E 1008,3 50 0,0
30.07.2020 08:00:00 15,2 11,2 0 0 5 3 N 1008,4 48 0,0
30.07.2020 07:00:00 13,7 12,3 0 0 3 2 N 1008,7 50 0,0
30.07.2020 06:00:00 12,2 11,3 0 0 4 2 N 1008,8 45 0,0
30.07.2020 05:00:00 10,5 10,3 2 1 10 5 ESE 1008,8 19 0,0
30.07.2020 04:00:00 9,8 9,5 6 3 10 5 WSW 1008,9 18 0,0
30.07.2020 03:00:00 10,1 9,6 5 3 7 4 W 1008,7 21 0,0
30.07.2020 02:00:00 10,9 10,3 5 3 9 5 NW 1008,4 36 0,0
30.07.2020 01:00:00 11,5 10,7 8 5 13 7 WSW 1008,3 50 0,0
30.07.2020 00:00:00 11,3 10,8 6 3 9 5 W 1008,6 19 0,1
29.07.2020 23:00:00 11,9 11,4 3 2 6 3 W 1008,8 21 0,5
29.07.2020 22:00:00 12,4 11,6 3 2 10 6 S 1008,8 23 0,1
29.07.2020 21:00:00 13,4 11,3 4 2 23 13 SE 1008,4 50 0,0
29.07.2020 20:00:00 15,4 13,1 8 4 16 9 SE 1007,7 32 0,0
29.07.2020 19:00:00 15,3 13,3 6 3 14 7 NNE 1007,4 49 0,0
29.07.2020 18:00:00 16,4 13,7 4 2 24 13 SSE 1007,4 46 0,0
29.07.2020 17:00:00 16,0 12,8 7 4 21 11 SE 1007,2 50 0,0
29.07.2020 16:00:00 14,8 13,3 8 4 15 8 NNW 1007,6 38 0,0
29.07.2020 15:00:00 15,3 13,5 4 2 16 9 NNE 1007,5 27 0,5
29.07.2020 14:00:00 13,4 12,3 10 6 32 17 NE 1008,1 22 7,3
29.07.2020 13:00:00 15,4 13,8 5 3 11 6 SW 1007,2 17 0,1
29.07.2020 12:00:00 15,1 14,0 5 3 9 5 WSW 1008,0 32 0,5
29.07.2020 11:00:00 13,8 12,8 5 3 14 8 ESE 1008,6 41 0,0
29.07.2020 10:00:00 14,5 13,2 5 3 9 5 E 1008,7 36 -
29.07.2020 09:00:00 13,3 12,7 6 3 9 5 ENE 1009,2 11 0,2
29.07.2020 08:00:00 13,2 12,7 2 1 7 4 N 1009,0 12 0,7
29.07.2020 07:00:00 12,9 12,4 0 0 6 4 N 1009,3 33 0,0
29.07.2020 06:00:00 12,1 11,9 0 0 6 3 N 1009,6 8 0,4
29.07.2020 05:00:00 11,8 11,6 4 2 10 5 ESE 1010,1 1,5 2,5
29.07.2020 04:00:00 11,4 11,2 5 3 7 4 SSW 1010,5 12 0,2
29.07.2020 03:00:00 11,2 10,9 3 2 5 3 S 1011,1 6 0,0
29.07.2020 02:00:00 11,1 10,8 4 2 6 3 SW 1011,2 - 0,0
29.07.2020 01:00:00 12,0 11,5 2 1 14 8 WNW 1011,5 9 0,5
29.07.2020 00:00:00 12,4 11,8 6 4 17 9 SE 1011,9 24 0,2
28.07.2020 23:00:00 12,9 11,8 10 5 22 12 E 1011,9 50 0,4
28.07.2020 22:00:00 12,4 11,8 5 3 14 7 SE 1012,4 8 0,9
28.07.2020 21:00:00 12,5 11,7 3 2 7 4 WSW 1012,5 47 0,0
28.07.2020 20:00:00 12,5 11,4 6 3 15 8 S 1012,7 35 0,0
28.07.2020 19:00:00 12,8 10,9 6 4 22 12 ESE 1012,9 50 0,1
28.07.2020 18:00:00 13,1 10,6 7 4 37 20 SE 1013,2 31 0,5
28.07.2020 17:00:00 15,6 12,3 0 0 6 3 N 1012,2 50 0,0
28.07.2020 16:00:00 15,7 12,1 2 1 11 6 ESE 1012,6 50 0,0
28.07.2020 15:00:00 14,6 11,7 6 4 26 14 E 1013,3 44 0,0
28.07.2020 14:00:00 14,9 11,3 8 5 33 18 E 1013,5 47 0,0
28.07.2020 13:00:00 15,4 10,8 16 9 41 22 S 1013,3 33 0,0

tt = Température de l'air
td = dewpoint
ff = Vitesse du vent
fx = gusts
dd = Direction du vent
ppp = reduced air pressure
vv = visibility
rr = Quantités de précipitations

stations d'obs. à proximité